Weather History for KSHN - April, 2013

Change the Weather History Date:

Monday, April 29, 2013

  Actual Average Record
Temperature  
Mean Temperature 48 °F -  
Max Temperature 54 °F 62 °F 85 °F (1957)
Min Temperature 39 °F 41 °F 28 °F (2011)
Degree Days  
Heating Degree Days 18    
Moisture  
Dew Point 36 °F    
Average Humidity 67    
Maximum Humidity 93    
Minimum Humidity 41    
Precipitation  
Precipitation 0.01 in - - ()
Sea Level Pressure  
Sea Level Pressure 30.07 in    
Wind  
Wind Speed 17 mph (WSW)    
Max Wind Speed 23 mph    
Max Gust Speed 32 mph    
Visibility 10 miles    
Events      
Averages and records for this station are not official NWS values.
T = Trace of Precipitation, MM = Missing Value Source: NWS Daily Summary

Daily Weather History Graph

Daily Weather History Graph

Search for Another Location

Airport or City:

Trip Planner

Search our weather history database for the weather conditions in past years. The results will help you decide how hot, cold, wet, or windy it might be!

Date:

Astronomy

Apr. 29, 2013 Rise Set
Actual Time 5:59 AM PDT 8:21 PM PDT
Civil Twilight 5:25 AM PDT 8:55 PM PDT
Nautical Twilight 4:42 AM PDT 9:38 PM PDT
Astronomical Twilight 3:54 AM PDT 10:26 PM PDT
Moon 12:02 AM PDT (4/29) 9:19 AM PDT (4/29)
Length of Visible Light 15h 30m
Length of Day
14h 22m
Waning Gibbous, 79% of the Moon is Illuminated
Apr 29
Waning Gibbous
May 2
Last Quarter
May 9
New
May 17
First Quarter
May 24
Full

Hourly Weather History & Observations

Time (PDT) Temp. Windchill Dew Point Humidity Pressure Visibility Wind Dir Wind Speed Gust Speed Precip Events Conditions
12:53 AM 48.9 °F - 46.9 °F 93% 29.92 in 10.0 mi WSW 18.4 mph 29.9 mph 0.01 in   Overcast
1:21 AM 48.2 °F - 44.6 °F 87% 29.92 in 10.0 mi WSW 17.3 mph 28.8 mph N/A   Scattered Clouds
1:53 AM 46.9 °F - 43.0 °F 86% 29.95 in 10.0 mi WSW 15.0 mph 23.0 mph N/A   Scattered Clouds
2:53 AM 45.0 °F 37.6 °F 39.9 °F 82% 29.97 in 10.0 mi WSW 17.3 mph 23.0 mph N/A   Clear
3:53 AM 44.1 °F 35.7 °F 39.0 °F 82% 29.98 in 10.0 mi WSW 20.7 mph 27.6 mph N/A   Clear
4:53 AM 43.0 °F 35.4 °F 39.0 °F 86% 29.99 in 10.0 mi WSW 16.1 mph - N/A   Clear
5:53 AM 41.0 °F 33.1 °F 37.9 °F 89% 30.00 in 10.0 mi SW 15.0 mph - N/A   Clear
6:53 AM 42.1 °F 34.2 °F 37.9 °F 85% 30.03 in 10.0 mi SW 16.1 mph - N/A   Clear
7:53 AM 44.1 °F 36.5 °F 37.9 °F 79% 30.05 in 10.0 mi SW 17.3 mph - N/A   Clear
8:53 AM 46.9 °F - 36.0 °F 66% 30.06 in 10.0 mi WSW 18.4 mph 27.6 mph N/A   Clear
9:53 AM 48.9 °F - 32.0 °F 52% 30.08 in 10.0 mi WSW 23.0 mph 32.2 mph N/A   Clear
10:53 AM 51.1 °F - 35.1 °F 54% 30.10 in 10.0 mi WSW 18.4 mph 29.9 mph N/A   Clear
11:53 AM 52.0 °F - 32.0 °F 47% 30.11 in 10.0 mi WSW 18.4 mph 29.9 mph N/A   Clear
12:53 PM 53.1 °F - 33.1 °F 47% 30.11 in 10.0 mi WSW 23.0 mph 28.8 mph N/A   Clear
1:53 PM 53.1 °F - 36.0 °F 52% 30.12 in 10.0 mi WSW 19.6 mph 28.8 mph N/A   Clear
2:53 PM 54.0 °F - 30.9 °F 41% 30.12 in 10.0 mi WSW 17.3 mph 29.9 mph N/A   Clear
3:53 PM 52.0 °F - 33.1 °F 49% 30.13 in 10.0 mi WSW 18.4 mph 24.2 mph N/A   Clear
4:53 PM 52.0 °F - 33.1 °F 49% 30.13 in 10.0 mi West 13.8 mph 29.9 mph N/A   Partly Cloudy
5:53 PM 50.0 °F - 33.1 °F 52% 30.14 in 10.0 mi West 11.5 mph - N/A   Scattered Clouds
6:53 PM 48.9 °F - 33.1 °F 54% 30.13 in 10.0 mi WSW 16.1 mph 24.2 mph N/A   Partly Cloudy
7:53 PM 45.0 °F 37.6 °F 34.0 °F 65% 30.13 in 10.0 mi WSW 17.3 mph 25.3 mph N/A   Clear
8:53 PM 43.0 °F 35.1 °F 32.0 °F 65% 30.13 in 10.0 mi WSW 17.3 mph 25.3 mph N/A   Clear
9:53 PM 42.1 °F 34.9 °F 33.1 °F 70% 30.14 in 10.0 mi WSW 13.8 mph 23.0 mph N/A   Clear
10:53 PM 41.0 °F 33.9 °F 32.0 °F 70% 30.15 in 10.0 mi WSW 12.7 mph - N/A   Clear
11:53 PM 39.9 °F 32.1 °F 33.1 °F 77% 30.16 in 10.0 mi West 13.8 mph - N/A   Clear